When you browse on this site, cookies collect data to enhance your experience and personalize the content and advertising you see.
Visit our Privacy Policy to learn more. By continuing to use the site, you agree to this use of cookies and data.
  • In Spain
  • List of Countries
  • For 7 days
  • Water Temperature
  • Weather Map
  • Weather Widgets
  • user-avatar
    Login

    Hourly Weather Satif

    Today, 18 August, Sunday

    Time Temperature Precipitation Wind Pressure Humidity
    00:00 +27°C° 0 mm 2 mps 674 mmHg 39%
    01:00 +27°C° 0 mm 2 mps 673 mmHg 39%
    02:00 +26°C° 0 mm 2 mps 673 mmHg 39%
    03:00 +26°C° 0 mm 2 mps 673 mmHg 40%
    04:00 +26°C° 0 mm 2 mps 673 mmHg 38%
    05:00 +26°C° 0 mm 2 mps 673 mmHg 37%
    06:00 +27°C° 0 mm 3 mps 673 mmHg 36%
    07:00 +28°C° 0 mm 4 mps 673 mmHg 32%
    08:00 +30°C° 0 mm 5 mps 674 mmHg 28%
    09:00 +33°C° 0 mm 7 mps 675 mmHg 25%
    10:00 +34°C° 0 mm 7 mps 675 mmHg 23%
    11:00 +35°C° 0 mm 6 mps 675 mmHg 22%
    12:00 +36°C° 0 mm 6 mps 675 mmHg 20%
    13:00 +36°C° 0 mm 6 mps 674 mmHg 19%
    14:00 +36°C° 0 mm 5 mps 674 mmHg 18%
    15:00 +37°C° 0 mm 4 mps 674 mmHg 16%
    16:00 +36°C° 0 mm 4 mps 674 mmHg 18%
    17:00 +35°C° 0 mm 3 mps 673 mmHg 20%
    18:00 +34°C° 0 mm 2 mps 673 mmHg 22%
    19:00 +32°C° 0 mm 2 mps 673 mmHg 26%
    20:00 +30°C° 0 mm 1 mps 673 mmHg 29%
    21:00 +29°C° 0 mm 1 mps 673 mmHg 33%
    22:00 +29°C° 0 mm 1 mps 673 mmHg 34%
    23:00 +28°C° 0 mm 1 mps 673 mmHg 35%

    Tomorrow, 19 August, Monday

    Time Temperature Precipitation Wind Pressure Humidity
    00:00 +27°C° 0 mm 1 mps 673 mmHg 36%
    01:00 +27°C° 0 mm 1 mps 672 mmHg 37%
    02:00 +24°C° 0 mm 0 mps 672 mmHg 39%
    03:00 +24°C° 0 mm 0 mps 672 mmHg 40%
    04:00 +24°C° 0 mm 0 mps 672 mmHg 40%
    05:00 +24°C° 0 mm 0 mps 672 mmHg 40%
    06:00 +25°C° 0 mm 0 mps 673 mmHg 39%
    07:00 +28°C° 0 mm 1 mps 673 mmHg 35%
    08:00 +30°C° 0 mm 1 mps 674 mmHg 30%
    09:00 +31°C° 0 mm 1 mps 675 mmHg 26%
    10:00 +32°C° 0 mm 1 mps 675 mmHg 24%
    11:00 +33°C° 0 mm 1 mps 675 mmHg 22%
    12:00 +34°C° 0 mm 1 mps 675 mmHg 20%
    13:00 +35°C° 0 mm 2 mps 675 mmHg 20%
    14:00 +36°C° 0 mm 2 mps 675 mmHg 20%
    15:00 +36°C° 0 mm 3 mps 674 mmHg 21%
    16:00 +34°C° 0 mm 4 mps 674 mmHg 25%
    17:00 +33°C° 0 mm 4 mps 674 mmHg 29%
    18:00 +32°C° 0 mm 4 mps 674 mmHg 34%
    19:00 +30°C° 0 mm 3 mps 674 mmHg 37%
    20:00 +29°C° 0 mm 2 mps 674 mmHg 40%
    21:00 +28°C° 0 mm 1 mps 674 mmHg 44%
    22:00 +27°C° 0 mm 1 mps 674 mmHg 45%
    23:00 +27°C° 0 mm 1 mps 673 mmHg 47%

    Day after tomorrow, 20 August, Tuesday

    Time Temperature Precipitation Wind Pressure Humidity
    00:00 +26°C° 0 mm 1 mps 673 mmHg 48%
    01:00 +26°C° 0 mm 1 mps 673 mmHg 48%
    02:00 +25°C° 0 mm 1 mps 673 mmHg 47%
    03:00 +25°C° 0 mm 1 mps 672 mmHg 46%
    04:00 +25°C° 0 mm 1 mps 672 mmHg 44%
    05:00 +25°C° 0 mm 1 mps 673 mmHg 42%
    06:00 +26°C° 0 mm 1 mps 673 mmHg 40%
    07:00 +27°C° 0 mm 1 mps 674 mmHg 36%
    08:00 +29°C° 0 mm 2 mps 674 mmHg 31%
    09:00 +31°C° 0 mm 2 mps 675 mmHg 27%
    10:00 +33°C° 0 mm 3 mps 675 mmHg 24%
    11:00 +34°C° 0 mm 3 mps 675 mmHg 21%
    12:00 +35°C° 0 mm 3 mps 675 mmHg 18%
    13:00 +35°C° 0 mm 4 mps 675 mmHg 19%
    14:00 +35°C° 0 mm 4 mps 675 mmHg 19%
    15:00 +35°C° 0 mm 4 mps 675 mmHg 20%
    16:00 +34°C° 0 mm 4 mps 675 mmHg 23%
    17:00 +32°C° 0 mm 4 mps 674 mmHg 26%
    18:00 +30°C° 0 mm 4 mps 674 mmHg 30%
    19:00 +28°C° 0 mm 3 mps 674 mmHg 33%
    20:00 +27°C° 0 mm 2 mps 675 mmHg 36%
    21:00 +26°C° 0 mm 1 mps 675 mmHg 39%
    22:00 +25°C° 0 mm 1 mps 675 mmHg 40%
    23:00 +25°C° 0 mm 1 mps 674 mmHg 40%

    21 August, Wednesday

    Time Temperature Precipitation Wind Pressure Humidity
    00:00 +24°C° 0 mm 1 mps 674 mmHg 41%
    01:00 +24°C° 0 mm 1 mps 674 mmHg 43%
    02:00 +23°C° 0 mm 1 mps 674 mmHg 46%
    03:00 +23°C° 0 mm 1 mps 674 mmHg 48%
    04:00 +23°C° 0 mm 1 mps 674 mmHg 51%
    05:00 +22°C° 0 mm 1 mps 674 mmHg 54%
    06:00 +22°C° 0 mm 1 mps 674 mmHg 56%
    07:00 +24°C° 0 mm 2 mps 675 mmHg 51%
    08:00 +25°C° 0 mm 2 mps 675 mmHg 46%
    09:00 +26°C° 0 mm 2 mps 676 mmHg 41%
    10:00 +28°C° 0 mm 2 mps 676 mmHg 38%
    11:00 +29°C° 0 mm 1 mps 676 mmHg 35%
    12:00 +30°C° 0 mm 1 mps 676 mmHg 32%
    13:00 +31°C° 0 mm 2 mps 676 mmHg 31%
    14:00 +31°C° 0 mm 2 mps 676 mmHg 31%
    15:00 +32°C° 0 mm 2 mps 675 mmHg 31%
    16:00 +30°C° 0 mm 3 mps 675 mmHg 41%
    17:00 +28°C° 0 mm 4 mps 675 mmHg 50%
    18:00 +27°C° 0 mm 5 mps 674 mmHg 60%
    19:00 +26°C° 0 mm 4 mps 674 mmHg 65%
    20:00 +25°C° 0 mm 3 mps 675 mmHg 70%
    21:00 +24°C° 0 mm 2 mps 675 mmHg 74%
    22:00 +24°C° 0 mm 2 mps 675 mmHg 75%
    23:00 +23°C° 0 mm 2 mps 674 mmHg 75%

    22 August, Thursday

    Time Temperature Precipitation Wind Pressure Humidity
    00:00 +23°C° 0 mm 2 mps 674 mmHg 75%
    01:00 +23°C° 0 mm 2 mps 674 mmHg 76%
    02:00 +23°C° 0 mm 2 mps 674 mmHg 76%
    03:00 +22°C° 0 mm 1 mps 674 mmHg 77%
    04:00 +22°C° 0 mm 1 mps 674 mmHg 76%
    05:00 +22°C° 0 mm 1 mps 674 mmHg 75%
    06:00 +22°C° 0 mm 1 mps 674 mmHg 75%
    07:00 +24°C° 0 mm 1 mps 675 mmHg 66%
    08:00 +25°C° 0 mm 1 mps 675 mmHg 58%
    09:00 +27°C° 0 mm 1 mps 676 mmHg 50%
    10:00 +28°C° 0 mm 2 mps 676 mmHg 45%
    11:00 +30°C° 0 mm 2 mps 676 mmHg 40%
    12:00 +31°C° 0 mm 3 mps 676 mmHg 35%
    13:00 +31°C° 0.1 mm 3 mps 676 mmHg 36%
    14:00 +32°C° 0.1 mm 4 mps 675 mmHg 37%
    15:00 +32°C° 0.1 mm 4 mps 675 mmHg 39%
    16:00 +30°C° 0.1 mm 4 mps 675 mmHg 45%
    17:00 +28°C° 0.1 mm 4 mps 674 mmHg 51%
    18:00 +27°C° 0.1 mm 3 mps 674 mmHg 57%
    19:00 +26°C° 0.1 mm 3 mps 674 mmHg 62%
    20:00 +25°C° 0.1 mm 3 mps 674 mmHg 67%
    21:00 +24°C° 0.1 mm 3 mps 674 mmHg 72%
    22:00 +24°C° 0 mm 2 mps 674 mmHg 72%
    23:00 +23°C° 0 mm 2 mps 674 mmHg 72%

    23 August, Friday

    Time Temperature Precipitation Wind Pressure Humidity
    00:00 +23°C° 0 mm 2 mps 674 mmHg 72%
    01:00 +23°C° 0 mm 1 mps 674 mmHg 73%
    02:00 +23°C° 0 mm 1 mps 673 mmHg 73%
    03:00 +23°C° 0 mm 1 mps 673 mmHg 73%
    04:00 +23°C° 0 mm 1 mps 673 mmHg 72%
    05:00 +23°C° 0 mm 1 mps 674 mmHg 70%
    06:00 +23°C° 0 mm 1 mps 674 mmHg 68%
    07:00 +25°C° 0 mm 3 mps 674 mmHg 56%
    08:00 +27°C° 0 mm 4 mps 675 mmHg 45%
    09:00 +30°C° 0 mm 6 mps 675 mmHg 33%
    10:00 +30°C° 0 mm 6 mps 675 mmHg 31%
    11:00 +32°C° 0 mm 6 mps 675 mmHg 30%
    12:00 +33°C° 0 mm 6 mps 675 mmHg 28%
    13:00 +33°C° 0 mm 6 mps 675 mmHg 29%
    14:00 +33°C° 0 mm 5 mps 674 mmHg 30%
    15:00 +33°C° 0 mm 4 mps 674 mmHg 30%
    16:00 +32°C° 0 mm 4 mps 674 mmHg 35%
    17:00 +30°C° 0 mm 4 mps 673 mmHg 41%
    18:00 +29°C° 0 mm 3 mps 673 mmHg 46%
    19:00 +27°C° 0 mm 3 mps 673 mmHg 52%
    20:00 +26°C° 0 mm 3 mps 673 mmHg 58%
    21:00 +25°C° 0 mm 2 mps 673 mmHg 64%
    22:00 +25°C° 0 mm 2 mps 673 mmHg 66%
    23:00 +24°C° 0 mm 2 mps 673 mmHg 69%
    Show more